Location: Cedar Brake
(32.2526°N, 97.8459°W)
Time: 20:49:40
(UTC+00:00)

Cosmos 1943 Rocket - Pass Details

Date: 22 April 2026
Orbit: 810 x 844 km, 71.0° (Epoch: 21 May)

Event Time Altitude Azimuth Distance (km) Brightness Sun altitude
Rises 03:03:44 0° 323° (NW) 3,399 6.5 -23.7°
Reaches altitude 10° 03:06:40 10° 309° (NW) 2,457 5.7 -24.2°
Maximum altitude 03:10:56 23° 259° (W) 1,728 4.2 -24.9°
Drops below altitude 10° 03:15:10 10° 209° (SSW) 2,432 4.5 -25.7°
Enters shadow 03:15:53 - 205° (SSW) 2,644 4.7 -25.8°
